Showing default

ELEKTRO-L 2, 41105

Orbit data source: Space-Track

ELEKTRO-L 2, 41105 is a Commonwealth of Independent States-origin payload satellite in GEO that was launched on Fri, 11 Dec 2015 UTC via a ZENIT-3SLBF launch vehicle from the Tyuratam Missile And Space Complex (TTMTR). Payload-class satellites include a variety of spacecraft equipped with specific instruments for various scientific and technological missions. These include communications satellites like Starlink; space stations such as the ISS; scientific satellites like the Hubble; Earth observation satellites from companies like Planet Labs, Umbra, and HawkEye 360; GPS; miniature CubeSats for education and research; and military/defense satellites.

Not visible in the next 10 days
Identifier
41105, 2015-074A
Orbit
GEO
Country
Flag of CISCIS
Related business
Manufacturer
Lavochkin
Mission
Operational Civil Weather
Bus & Motor
NAVIGATOR, Unknown motor
Mass
1,855 kg wet, 1,591 kg dry
Launch date (UTC)
2015-12-11 (11 years ago)
Launch vehicle
ZENIT-3SLBF
Launch site
Tyuratam Missile And Space Complex (TTMTR)
Object type
Payload
Rocket body
Debris
Shape & HBR
Box + 1 Pan + 1 Ant, 5.0 m
Radar Cross Section
11.105 m², Large (>1 m²)

Expand to show TLE details & history
Last TLE update: 8 hours ago

TLE from 8 hours ago
0 ELEKTRO-L 2
1 41105U 15074A   26267.26603666 -.00000112  00000-0  00000-0 0  9991
2 41105   6.9360  69.2640 0001809 193.2766 181.8481  1.00272331 39503
Epoch: 2026-09-24T06:23Z
TLE epoch observation values (Epoch: 2026-09-24T06:23:05.567Z)
Latitude
1.78013°
Longitude
-14.62411°
Altitude
35,793.32 km
Speed
3.074 km/s
True Right ascension
05h 37m 01s
True Declination
1° 46' 42"
Sunlit
Object was in daylight at epoch
Visualization orbit readout
Latitude
Unknown
Longitude
Unknown
Altitude
Unknown
Speed
Unknown
Apparent Right ascension
Unknown
Apparent Declination
Unknown
Sunlit
N/A
Visualization observer readout
Local Sidereal Time
07:44:31
Azimuth
Unknown
Elevation
Unknown
Doppler factor
Unknown
Orbital elements
Apogee altitude
35,795.117 km
Perigee altitude
35,779.862 km
Semi-major axis
42,165.626 km
Eccentricity
0.00018
Inclination
6.936°
RAAN
69.264°
Arg. of periapsis
193.2766°
True anomaly
181.84743°
Mean anomaly
181.8481°
Eccentric anomaly
181.84777°
Mean motion
0.25067 °/min
Orbital period
1,436.14 mins
BSTAR
0
Loading maneuver chart data...
Computing Atmospheric mass density...
Loading historical data...
Loading historical data...
Loading historical data...
Loading historical data...
Loading historical data...
Loading historical data...
Loading historical data...

Documentation

Showing up to 5 results
|